Time,TemperatureF,DewpointF,PressureIn,WindDirection,WindDirectionDegrees,WindSpeedMPH,WindSpeedGustMPH,Humidity,HourlyPrecipIn,Conditions,Clouds,dailyrainin,SolarRadiationWatts/m^2,SoftwareType,DateUTC
2013-03-01 00:00:00,46.4,41.2,30.11,NE,49,0.0,3.0,82,0.00,,,0.00,0.0,WeatherDisplay:10.37,2013-02-28 23:00:00,
2013-03-01 00:05:00,46.5,41.6,30.11,NE,49,6.0,6.0,83,0.00,,,0.00,0.0,WeatherDisplay:10.37,2013-02-28 23:05:00,
2013-03-01 00:10:00,46.4,41.5,30.11,NE,49,5.0,6.0,83,0.00,,,0.00,0.0,WeatherDisplay:10.37,2013-02-28 23:10:00,
2013-03-01 00:20:00,46.2,41.4,30.11,NE,49,5.0,6.0,83,0.00,,,0.00,0.0,WeatherDisplay:10.37,2013-02-28 23:20:00,
2013-03-01 00:25:00,46.1,41.2,30.11,NE,49,5.0,6.0,83,0.00,,,0.00,0.0,WeatherDisplay:10.37,2013-02-28 23:25:00,
2013-03-01 00:30:00,46.0,41.1,30.10,NE,49,6.0,6.0,83,0.00,,,0.00,0.0,WeatherDisplay:10.37,2013-02-28 23:30:00,
2013-03-01 00:35:00,45.8,40.9,30.10,NE,48,6.0,7.0,83,0.00,,,0.00,0.0,WeatherDisplay:10.37,2013-02-28 23:35:00,
2013-03-01 00:40:00,45.9,41.1,30.10,NE,45,5.0,7.0,83,0.00,,,0.00,0.0,WeatherDisplay:10.37,2013-02-28 23:40:00,
2013-03-01 00:45:00,46.0,40.8,30.10,NE,43,3.0,5.0,82,0.00,,,0.00,0.0,WeatherDisplay:10.37,2013-02-28 23:45:00,
2013-03-01 00:50:00,46.1,40.9,30.10,NNE,31,3.0,8.0,82,0.00,,,0.00,0.0,WeatherDisplay:10.37,2013-02-28 23:50:00,
2013-03-01 01:00:00,46.2,40.7,30.10,NE,42,0.0,6.0,81,0.00,,,0.00,0.0,WeatherDisplay:10.37,2013-03-01 00:00:00,
2013-03-01 01:05:00,45.8,40.3,30.10,NE,40,0.0,0.0,81,0.00,,,0.00,0.0,WeatherDisplay:10.37,2013-03-01 00:05:00,
2013-03-01 01:10:00,45.5,40.0,30.10,NE,36,3.0,5.0,81,0.00,,,0.00,0.0,WeatherDisplay:10.37,2013-03-01 00:10:00,
2013-03-01 01:15:00,45.5,40.0,30.10,NE,36,2.0,4.0,81,0.00,,,0.00,0.0,WeatherDisplay:10.37,2013-03-01 00:15:00,
2013-03-01 01:20:00,45.4,39.9,30.10,NE,36,2.0,3.0,81,0.00,,,0.00,0.0,WeatherDisplay:10.37,2013-03-01 00:20:00,
2013-03-01 01:30:00,45.5,40.0,30.10,NE,36,1.0,3.0,81,0.00,,,0.00,0.0,WeatherDisplay:10.37,2013-03-01 00:30:00,
2013-03-01 01:35:00,45.3,39.8,30.10,NE,36,1.0,3.0,81,0.00,,,0.00,0.0,WeatherDisplay:10.37,2013-03-01 00:35:00,
2013-03-01 01:40:00,45.3,39.8,30.10,NE,36,1.0,2.0,81,0.00,,,0.00,0.0,WeatherDisplay:10.37,2013-03-01 00:40:00,
2013-03-01 01:45:00,45.3,40.1,30.10,NE,36,1.0,2.0,82,0.00,,,0.00,0.0,WeatherDisplay:10.37,2013-03-01 00:45:00,
2013-03-01 01:50:00,45.2,40.0,30.10,NE,36,1.0,3.0,82,0.00,,,0.00,0.0,WeatherDisplay:10.37,2013-03-01 00:50:00,
2013-03-01 01:55:00,45.0,39.8,30.10,NE,36,0.0,0.0,82,0.00,,,0.00,0.0,WeatherDisplay:10.37,2013-03-01 00:55:00,
2013-03-01 02:00:00,44.8,39.6,30.09,NE,36,0.0,2.0,82,0.00,,,0.00,0.0,WeatherDisplay:10.37,2013-03-01 01:00:00,
2013-03-01 02:05:00,44.8,40.0,30.09,NE,36,3.0,5.0,83,0.00,,,0.00,0.0,WeatherDisplay:10.37,2013-03-01 01:05:00,
2013-03-01 02:10:00,45.2,40.0,30.09,NE,37,5.0,7.0,82,0.00,,,0.00,0.0,WeatherDisplay:10.37,2013-03-01 01:10:00,
2013-03-01 02:15:00,45.3,40.1,30.09,NE,39,5.0,6.0,82,0.00,,,0.00,0.0,WeatherDisplay:10.37,2013-03-01 01:15:00,
2013-03-01 02:20:00,45.4,40.3,30.09,NE,42,3.0,6.0,82,0.00,,,0.00,0.0,WeatherDisplay:10.37,2013-03-01 01:20:00,
2013-03-01 02:25:00,45.7,40.5,30.09,NE,42,2.0,6.0,82,0.00,,,0.00,0.0,WeatherDisplay:10.37,2013-03-01 01:25:00,
2013-03-01 02:30:00,45.8,40.3,30.09,NE,41,1.0,5.0,81,0.00,,,0.00,0.0,WeatherDisplay:10.37,2013-03-01 01:30:00,
2013-03-01 02:35:00,46.0,40.5,30.08,NE,38,3.0,6.0,81,0.00,,,0.00,0.0,WeatherDisplay:10.37,2013-03-01 01:35:00,
2013-03-01 02:40:00,46.2,40.7,30.08,NNE,33,3.0,6.0,81,0.00,,,0.00,0.0,WeatherDisplay:10.37,2013-03-01 01:40:00,
2013-03-01 02:45:00,46.2,40.4,30.08,NNE,33,3.0,6.0,80,0.00,,,0.00,0.0,WeatherDisplay:10.37,2013-03-01 01:45:00,
2013-03-01 02:50:00,46.3,40.5,30.08,NE,34,1.0,6.0,80,0.00,,,0.00,0.0,WeatherDisplay:10.37,2013-03-01 01:50:00,
2013-03-01 03:00:00,46.3,40.5,30.08,NE,36,2.0,5.0,80,0.00,,,0.00,0.0,WeatherDisplay:10.37,2013-03-01 02:00:00,
2013-03-01 03:05:00,46.4,40.5,30.07,NE,36,0.0,4.0,80,0.00,,,0.00,0.0,WeatherDisplay:10.37,2013-03-01 02:05:00,
2013-03-01 03:10:00,46.4,40.6,30.07,NE,35,0.0,4.0,80,0.00,,,0.00,0.0,WeatherDisplay:10.37,2013-03-01 02:10:00,
2013-03-01 03:20:00,46.3,40.2,30.07,NE,35,0.0,2.0,79,0.00,,,0.00,0.0,WeatherDisplay:10.37,2013-03-01 02:20:00,
2013-03-01 03:25:00,46.4,40.2,30.07,NE,35,0.0,4.0,79,0.00,,,0.00,0.0,WeatherDisplay:10.37,2013-03-01 02:25:00,
2013-03-01 03:30:00,46.5,40.3,30.07,NE,35,2.0,4.0,79,0.00,,,0.00,0.0,WeatherDisplay:10.37,2013-03-01 02:30:00,
2013-03-01 03:35:00,46.5,40.3,30.07,NE,35,2.0,4.0,79,0.00,,,0.00,0.0,WeatherDisplay:10.37,2013-03-01 02:35:00,
2013-03-01 03:40:00,46.5,40.3,30.07,NE,35,2.0,4.0,79,0.00,,,0.00,0.0,WeatherDisplay:10.37,2013-03-01 02:40:00,
2013-03-01 03:45:00,46.5,40.3,30.06,NE,34,5.0,6.0,79,0.00,,,0.00,0.0,WeatherDisplay:10.37,2013-03-01 02:45:00,
2013-03-01 03:50:00,46.4,40.2,30.06,NNE,29,5.0,7.0,79,0.00,,,0.00,0.0,WeatherDisplay:10.37,2013-03-01 02:50:00,
2013-03-01 03:55:00,46.4,40.3,30.06,NNE,28,1.0,6.0,79,0.00,,,0.00,0.0,WeatherDisplay:10.37,2013-03-01 02:55:00,
2013-03-01 04:05:00,46.5,40.3,30.06,NNE,30,5.0,8.0,79,0.00,,,0.00,0.0,WeatherDisplay:10.37,2013-03-01 03:05:00,
2013-03-01 04:10:00,46.6,40.1,30.06,NNE,29,5.0,7.0,78,0.00,,,0.00,0.0,WeatherDisplay:10.37,2013-03-01 03:10:00,
2013-03-01 04:15:00,46.6,40.1,30.06,NE,34,3.0,7.0,78,0.00,,,0.00,0.0,WeatherDisplay:10.37,2013-03-01 03:15:00,
2013-03-01 04:20:00,46.7,40.2,30.06,NE,42,2.0,7.0,78,0.00,,,0.00,0.0,WeatherDisplay:10.37,2013-03-01 03:20:00,
2013-03-01 04:25:00,46.8,40.3,30.06,NE,40,3.0,8.0,78,0.00,,,0.00,0.0,WeatherDisplay:10.37,2013-03-01 03:25:00,
2013-03-01 04:30:00,46.8,40.0,30.06,NE,44,6.0,8.0,77,0.00,,,0.00,0.0,WeatherDisplay:10.37,2013-03-01 03:30:00,
2013-03-01 04:35:00,46.8,40.0,30.06,NE,43,5.0,9.0,77,0.00,,,0.00,0.0,WeatherDisplay:10.37,2013-03-01 03:35:00,
2013-03-01 04:40:00,46.8,40.0,30.06,NE,44,3.0,9.0,77,0.00,,,0.00,0.0,WeatherDisplay:10.37,2013-03-01 03:40:00,
2013-03-01 04:45:00,46.8,40.0,30.05,NE,49,6.0,8.0,77,0.00,,,0.00,0.0,WeatherDisplay:10.37,2013-03-01 03:45:00,
2013-03-01 04:50:00,46.8,40.0,30.05,NE,49,6.0,8.0,77,0.00,,,0.00,0.0,WeatherDisplay:10.37,2013-03-01 03:50:00,
2013-03-01 04:55:00,46.9,40.0,30.05,NE,50,6.0,10.0,77,0.00,,,0.00,0.0,WeatherDisplay:10.37,2013-03-01 03:55:00,
2013-03-01 05:00:00,46.9,39.7,30.05,NE,48,7.0,10.0,76,0.00,,,0.00,0.0,WeatherDisplay:10.37,2013-03-01 04:00:00,
2013-03-01 05:05:00,47.0,39.8,30.05,NE,46,7.0,10.0,76,0.00,,,0.00,0.0,WeatherDisplay:10.37,2013-03-01 04:05:00,
2013-03-01 05:10:00,47.1,39.9,30.05,NE,47,6.0,9.0,76,0.00,,,0.00,0.0,WeatherDisplay:10.37,2013-03-01 04:10:00,
2013-03-01 05:20:00,47.2,39.7,30.05,NE,45,6.0,9.0,75,0.00,,,0.00,0.0,WeatherDisplay:10.37,2013-03-01 04:20:00,
2013-03-01 05:25:00,47.2,39.7,30.05,NE,45,7.0,9.0,75,0.00,,,0.00,0.0,WeatherDisplay:10.37,2013-03-01 04:25:00,
2013-03-01 05:30:00,47.2,39.7,30.05,NE,48,7.0,9.0,75,0.00,,,0.00,0.0,WeatherDisplay:10.37,2013-03-01 04:30:00,
2013-03-01 05:35:00,47.2,39.7,30.05,NE,49,6.0,8.0,75,0.00,,,0.00,0.0,WeatherDisplay:10.37,2013-03-01 04:35:00,
2013-03-01 05:40:00,47.2,39.7,30.05,NE,47,5.0,8.0,75,0.00,,,0.00,0.0,WeatherDisplay:10.37,2013-03-01 04:40:00,
2013-03-01 05:45:00,47.2,39.7,30.04,NE,46,5.0,8.0,75,0.00,,,0.00,0.0,WeatherDisplay:10.37,2013-03-01 04:45:00,
2013-03-01 05:50:00,47.2,39.7,30.05,NE,52,5.0,8.0,75,0.00,,,0.00,0.0,WeatherDisplay:10.37,2013-03-01 04:50:00,
2013-03-01 05:55:00,47.2,39.7,30.05,NE,44,3.0,7.0,75,0.00,,,0.00,0.0,WeatherDisplay:10.37,2013-03-01 04:55:00,
2013-03-01 06:00:00,47.2,39.7,30.05,NNE,25,1.0,7.0,75,0.00,,,0.00,0.0,WeatherDisplay:10.37,2013-03-01 05:00:00,
2013-03-01 06:05:00,47.2,39.7,30.05,NNE,31,5.0,7.0,75,0.00,OVC,,0.00,0.0,WeatherDisplay:10.37,2013-03-01 05:05:00,
2013-03-01 06:10:00,47.1,39.2,30.04,NNE,26,6.0,7.0,74,0.00,,,0.00,0.0,WeatherDisplay:10.37,2013-03-01 05:10:00,
2013-03-01 06:15:00,46.9,39.4,30.04,NE,42,3.0,8.0,75,0.00,OVC,,0.00,0.0,WeatherDisplay:10.37,2013-03-01 05:15:00,
2013-03-01 06:20:00,46.8,39.3,30.04,NE,44,7.0,9.0,75,0.00,OVC,,0.00,0.0,WeatherDisplay:10.37,2013-03-01 05:20:00,
2013-03-01 06:30:00,46.7,39.2,30.04,NE,39,6.0,9.0,75,0.00,OVC,,0.00,0.0,WeatherDisplay:10.37,2013-03-01 05:30:00,
2013-03-01 06:35:00,46.6,39.1,30.04,NE,44,5.0,7.0,75,0.00,OVC,,0.00,0.0,WeatherDisplay:10.37,2013-03-01 05:35:00,
2013-03-01 06:40:00,46.5,39.0,30.04,NE,34,3.0,7.0,75,0.00,OVC,,0.00,0.0,WeatherDisplay:10.37,2013-03-01 05:40:00,
2013-03-01 06:45:00,46.5,39.0,30.04,NNE,24,6.0,9.0,75,0.00,OVC,,0.00,0.0,WeatherDisplay:10.37,2013-03-01 05:45:00,
2013-03-01 06:50:00,46.4,38.9,30.04,NNE,33,6.0,10.0,75,0.00,OVC,,0.00,5.0,WeatherDisplay:10.37,2013-03-01 05:50:00,
2013-03-01 06:55:00,46.3,39.1,30.04,NE,41,3.0,10.0,76,0.00,BKN,,0.00,9.0,WeatherDisplay:10.37,2013-03-01 05:55:00,
2013-03-01 07:00:00,46.3,39.1,30.03,NE,45,6.0,10.0,76,0.00,BKN,,0.00,12.0,WeatherDisplay:10.37,2013-03-01 06:00:00,
2013-03-01 07:05:00,46.3,39.1,30.03,NE,46,8.0,13.0,76,0.00,BKN,,0.00,14.0,WeatherDisplay:10.37,2013-03-01 06:05:00,
2013-03-01 07:10:00,46.3,39.1,30.04,NE,46,7.0,12.0,76,0.00,BKN,,0.00,16.0,WeatherDisplay:10.37,2013-03-01 06:10:00,
2013-03-01 07:15:00,46.3,39.2,30.04,NE,50,6.0,10.0,76,0.00,BKN,,0.00,19.0,WeatherDisplay:10.37,2013-03-01 06:15:00,
2013-03-01 07:20:00,46.4,39.2,30.04,NE,49,7.0,8.0,76,0.00,BKN,,0.00,21.0,WeatherDisplay:10.37,2013-03-01 06:20:00,
2013-03-01 07:25:00,46.4,39.2,30.04,NE,47,7.0,10.0,76,0.00,BKN,,0.00,25.0,WeatherDisplay:10.37,2013-03-01 06:25:00,
2013-03-01 07:30:00,46.4,39.3,30.04,NE,49,3.0,9.0,76,0.00,BKN,,0.00,35.0,WeatherDisplay:10.37,2013-03-01 06:30:00,
2013-03-01 07:35:00,46.5,39.3,30.04,NE,45,5.0,7.0,76,0.00,BKN,,0.00,46.0,WeatherDisplay:10.37,2013-03-01 06:35:00,
2013-03-01 07:40:00,46.5,39.3,30.04,NE,44,2.0,7.0,76,0.00,BKN,,0.00,53.0,WeatherDisplay:10.37,2013-03-01 06:40:00,
2013-03-01 07:45:00,46.6,39.1,30.04,NE,47,3.0,7.0,75,0.00,BKN,,0.00,60.0,WeatherDisplay:10.37,2013-03-01 06:45:00,
2013-03-01 07:55:00,46.7,39.2,30.04,NE,42,2.0,7.0,75,0.00,BKN,,0.00,74.0,WeatherDisplay:10.37,2013-03-01 06:55:00,
2013-03-01 08:00:00,46.8,39.3,30.04,NE,46,6.0,8.0,75,0.00,BKN,,0.00,79.0,WeatherDisplay:10.37,2013-03-01 07:00:00,
2013-03-01 08:05:00,46.9,39.4,30.04,NE,45,5.0,9.0,75,0.00,BKN,,0.00,84.0,WeatherDisplay:10.37,2013-03-01 07:05:00,
2013-03-01 08:10:00,47.0,39.1,30.03,NE,46,7.0,12.0,74,0.00,BKN,,0.00,88.0,WeatherDisplay:10.37,2013-03-01 07:10:00,
2013-03-01 08:15:00,47.1,39.2,30.04,NE,41,6.0,8.0,74,0.00,BKN,,0.00,86.0,WeatherDisplay:10.37,2013-03-01 07:15:00,
2013-03-01 08:25:00,47.4,39.2,30.03,NE,48,6.0,10.0,73,0.00,BKN,,0.00,84.0,WeatherDisplay:10.37,2013-03-01 07:25:00,
2013-03-01 08:30:00,47.5,40.0,30.03,NE,44,7.0,9.0,75,0.00,BKN,,0.00,83.0,WeatherDisplay:10.37,2013-03-01 07:30:00,
2013-03-01 08:35:00,47.6,39.4,30.03,NE,46,5.0,9.0,73,0.00,BKN,,0.00,86.0,WeatherDisplay:10.37,2013-03-01 07:35:00,
2013-03-01 08:40:00,47.6,39.4,30.03,NE,44,6.0,10.0,73,0.00,BKN,,0.00,95.0,WeatherDisplay:10.37,2013-03-01 07:40:00,
2013-03-01 08:45:00,47.7,39.1,30.03,NE,47,5.0,9.0,72,0.00,BKN,,0.00,104.0,WeatherDisplay:10.37,2013-03-01 07:45:00,
2013-03-01 08:50:00,47.8,39.2,30.03,NE,49,3.0,10.0,72,0.00,BKN,,0.00,109.0,WeatherDisplay:10.37,2013-03-01 07:50:00,
2013-03-01 09:00:00,48.0,39.4,30.03,NE,38,3.0,12.0,72,0.00,BKN,,0.00,132.0,WeatherDisplay:10.37,2013-03-01 08:00:00,
2013-03-01 09:05:00,48.1,39.5,30.03,NE,45,5.0,10.0,72,0.00,BKN,,0.00,142.0,WeatherDisplay:10.37,2013-03-01 08:05:00,
2013-03-01 09:15:00,48.4,39.4,30.03,NE,39,6.0,9.0,71,0.00,BKN,,0.00,137.0,WeatherDisplay:10.37,2013-03-01 08:15:00,
2013-03-01 09:20:00,48.5,39.5,30.03,NE,44,2.0,10.0,71,0.00,BKN,,0.00,130.0,WeatherDisplay:10.37,2013-03-01 08:20:00,
2013-03-01 09:25:00,48.6,39.6,30.03,NE,50,3.0,12.0,71,0.00,BKN,,0.00,130.0,WeatherDisplay:10.37,2013-03-01 08:25:00,
2013-03-01 09:30:00,48.7,39.4,30.02,NE,50,7.0,12.0,70,0.00,BKN,,0.00,134.0,WeatherDisplay:10.37,2013-03-01 08:30:00,
2013-03-01 09:35:00,48.9,39.5,30.02,NE,46,5.0,8.0,70,0.00,BKN,,0.00,137.0,WeatherDisplay:10.37,2013-03-01 08:35:00,
2013-03-01 09:40:00,49.1,39.7,30.02,NE,36,2.0,7.0,70,0.00,BKN,,0.00,141.0,WeatherDisplay:10.37,2013-03-01 08:40:00,
2013-03-01 09:45:00,49.1,39.4,30.02,NE,39,5.0,8.0,69,0.00,BKN,,0.00,148.0,WeatherDisplay:10.37,2013-03-01 08:45:00,
2013-03-01 09:50:00,49.3,39.6,30.02,NE,43,3.0,8.0,69,0.00,BKN,,0.00,153.0,WeatherDisplay:10.37,2013-03-01 08:50:00,
2013-03-01 09:55:00,49.4,39.7,30.02,NE,43,2.0,9.0,69,0.00,BKN,,0.00,163.0,WeatherDisplay:10.37,2013-03-01 08:55:00,
2013-03-01 10:00:00,49.6,39.8,30.02,NE,40,6.0,10.0,69,0.00,BKN,,0.00,171.0,WeatherDisplay:10.37,2013-03-01 09:00:00,
2013-03-01 10:10:00,49.9,39.8,30.02,NE,39,5.0,10.0,68,0.00,BKN,,0.00,193.0,WeatherDisplay:10.37,2013-03-01 09:10:00,
2013-03-01 10:15:00,50.1,39.9,30.02,NE,45,5.0,9.0,68,0.00,BKN,,0.00,220.0,WeatherDisplay:10.37,2013-03-01 09:15:00,
2013-03-01 10:20:00,50.4,40.2,30.02,NE,44,6.0,12.0,68,0.00,BKN,,0.00,260.0,WeatherDisplay:10.37,2013-03-01 09:20:00,
2013-03-01 10:25:00,50.8,40.6,30.02,NE,39,3.0,7.0,68,0.00,BKN,,0.00,290.0,WeatherDisplay:10.37,2013-03-01 09:25:00,
2013-03-01 10:30:00,51.1,40.1,30.02,NE,48,7.0,10.0,66,0.00,BKN,,0.00,308.0,WeatherDisplay:10.37,2013-03-01 09:30:00,
2013-03-01 10:35:00,51.1,39.7,30.01,NE,49,7.0,12.0,65,0.00,SCT,,0.00,343.0,WeatherDisplay:10.37,2013-03-01 09:35:00,
2013-03-01 10:40:00,51.3,39.9,30.01,NE,49,8.0,12.0,65,0.00,SCT,,0.00,355.0,WeatherDisplay:10.37,2013-03-01 09:40:00,
2013-03-01 10:45:00,51.6,39.8,30.01,NE,41,6.0,10.0,64,0.00,SCT,,0.00,369.0,WeatherDisplay:10.37,2013-03-01 09:45:00,
2013-03-01 10:50:00,52.1,40.3,30.01,NE,39,8.0,12.0,64,0.00,SCT,,0.00,355.0,WeatherDisplay:10.37,2013-03-01 09:50:00,
2013-03-01 10:55:00,51.9,39.7,30.01,NE,45,9.0,12.0,63,0.00,SCT,,0.00,362.0,WeatherDisplay:10.37,2013-03-01 09:55:00,
2013-03-01 11:00:00,52.1,40.3,30.01,NE,41,5.0,10.0,64,0.00,SCT,,0.00,272.0,WeatherDisplay:10.37,2013-03-01 10:00:00,
2013-03-01 11:05:00,52.3,40.5,30.01,NNE,32,2.0,10.0,64,0.00,BKN,,0.00,250.0,WeatherDisplay:10.37,2013-03-01 10:05:00,
2013-03-01 11:10:00,52.4,40.6,30.01,NE,35,3.0,10.0,64,0.00,BKN,,0.00,265.0,WeatherDisplay:10.37,2013-03-01 10:10:00,
2013-03-01 11:20:00,52.9,40.6,30.01,NE,45,7.0,9.0,63,0.00,BKN,,0.00,290.0,WeatherDisplay:10.37,2013-03-01 10:20:00,
2013-03-01 11:25:00,52.9,40.2,30.01,NE,46,5.0,9.0,62,0.00,BKN,,0.00,260.0,WeatherDisplay:10.37,2013-03-01 10:25:00,
2013-03-01 11:35:00,53.3,40.6,30.01,NE,44,3.0,8.0,62,0.00,BKN,,0.00,234.0,WeatherDisplay:10.37,2013-03-01 10:35:00,
2013-03-01 11:40:00,53.3,40.6,30.00,NE,40,6.0,9.0,62,0.00,BKN,,0.00,229.0,WeatherDisplay:10.37,2013-03-01 10:40:00,
2013-03-01 11:50:00,53.4,40.7,30.00,NE,42,6.0,9.0,62,0.00,BKN,,0.00,220.0,WeatherDisplay:10.37,2013-03-01 10:50:00,
2013-03-01 11:55:00,53.5,40.8,30.00,NE,47,6.0,10.0,62,0.00,BKN,,0.00,199.0,WeatherDisplay:10.37,2013-03-01 10:55:00,
2013-03-01 12:05:00,53.7,41.4,30.00,NE,40,0.0,9.0,63,0.00,BKN,,0.00,178.0,WeatherDisplay:10.37,2013-03-01 11:05:00,
2013-03-01 12:10:00,53.6,40.5,30.00,NE,36,7.0,10.0,61,0.00,BKN,,0.00,183.0,WeatherDisplay:10.37,2013-03-01 11:10:00,
2013-03-01 12:15:00,53.6,40.9,30.00,NNE,30,3.0,10.0,62,0.00,BKN,,0.00,193.0,WeatherDisplay:10.37,2013-03-01 11:15:00,
2013-03-01 12:20:00,53.7,40.6,30.00,NNE,26,6.0,10.0,61,0.00,BKN,,0.00,204.0,WeatherDisplay:10.37,2013-03-01 11:20:00,
2013-03-01 12:25:00,53.9,41.2,30.00,NNE,29,1.0,5.0,62,0.00,BKN,,0.00,200.0,WeatherDisplay:10.37,2013-03-01 11:25:00,
2013-03-01 12:30:00,54.2,41.0,30.00,NNE,30,5.0,6.0,61,0.00,BKN,,0.00,197.0,WeatherDisplay:10.37,2013-03-01 11:30:00,
2013-03-01 12:35:00,54.2,41.0,30.00,NE,41,3.0,7.0,61,0.00,BKN,,0.00,193.0,WeatherDisplay:10.37,2013-03-01 11:35:00,
2013-03-01 12:40:00,54.3,41.1,29.99,NE,37,3.0,7.0,61,0.00,BKN,,0.00,192.0,WeatherDisplay:10.37,2013-03-01 11:40:00,
2013-03-01 12:45:00,54.4,41.2,29.99,NE,36,3.0,8.0,61,0.00,BKN,,0.00,185.0,WeatherDisplay:10.37,2013-03-01 11:45:00,
2013-03-01 12:50:00,54.3,41.1,29.99,NE,48,5.0,8.0,61,0.00,BKN,,0.00,174.0,WeatherDisplay:10.37,2013-03-01 11:50:00,
2013-03-01 12:55:00,54.2,41.0,29.98,NE,38,3.0,8.0,61,0.00,BKN,,0.00,162.0,WeatherDisplay:10.37,2013-03-01 11:55:00,
2013-03-01 13:00:00,54.1,40.9,29.98,NE,40,5.0,9.0,61,0.00,BKN,,0.00,158.0,WeatherDisplay:10.37,2013-03-01 12:00:00,
2013-03-01 13:05:00,54.1,40.9,29.98,NE,45,7.0,10.0,61,0.00,BKN,,0.00,158.0,WeatherDisplay:10.37,2013-03-01 12:05:00,
2013-03-01 13:10:00,54.1,40.9,29.98,NE,45,5.0,9.0,61,0.00,BKN,,0.00,162.0,WeatherDisplay:10.37,2013-03-01 12:10:00,
2013-03-01 13:15:00,54.1,40.9,29.97,NE,46,7.0,10.0,61,0.00,BKN,,0.00,169.0,WeatherDisplay:10.37,2013-03-01 12:15:00,
2013-03-01 13:20:00,54.2,40.6,29.97,NE,48,5.0,10.0,60,0.00,BKN,,0.00,181.0,WeatherDisplay:10.37,2013-03-01 12:20:00,
2013-03-01 13:30:00,54.6,41.0,29.97,NE,49,1.0,6.0,60,0.00,BKN,,0.00,211.0,WeatherDisplay:10.37,2013-03-01 12:30:00,
2013-03-01 13:35:00,54.7,41.5,29.97,NE,43,2.0,6.0,61,0.00,BKN,,0.00,223.0,WeatherDisplay:10.37,2013-03-01 12:35:00,
2013-03-01 13:45:00,54.7,41.1,29.96,NE,45,5.0,8.0,60,0.00,BKN,,0.00,248.0,WeatherDisplay:10.37,2013-03-01 12:45:00,
2013-03-01 13:50:00,54.7,41.5,29.96,NE,46,5.0,9.0,61,0.00,SCT,,0.00,287.0,WeatherDisplay:10.37,2013-03-01 12:50:00,
2013-03-01 13:55:00,54.9,41.7,29.96,NE,38,3.0,7.0,61,0.00,SCT,,0.00,292.0,WeatherDisplay:10.37,2013-03-01 12:55:00,
2013-03-01 14:00:00,55.0,41.8,29.95,NNE,25,3.0,6.0,61,0.00,SCT,,0.00,285.0,WeatherDisplay:10.37,2013-03-01 13:00:00,
2013-03-01 14:10:00,55.2,41.5,29.95,NE,45,7.0,10.0,60,0.00,SCT,,0.00,279.0,WeatherDisplay:10.37,2013-03-01 13:10:00,
2013-03-01 14:15:00,55.1,41.5,29.95,NE,34,6.0,9.0,60,0.00,SCT,,0.00,251.0,WeatherDisplay:10.37,2013-03-01 13:15:00,
2013-03-01 14:20:00,55.2,41.5,29.95,NE,35,2.0,8.0,60,0.00,SCT,,0.00,229.0,WeatherDisplay:10.37,2013-03-01 13:20:00,
2013-03-01 14:25:00,55.2,41.5,29.94,NE,34,5.0,9.0,60,0.00,SCT,,0.00,213.0,WeatherDisplay:10.37,2013-03-01 13:25:00,
2013-03-01 14:35:00,55.4,41.7,29.94,NE,50,6.0,10.0,60,0.00,SCT,,0.00,197.0,WeatherDisplay:10.37,2013-03-01 13:35:00,
2013-03-01 14:45:00,55.2,41.5,29.93,NE,45,6.0,10.0,60,0.00,SCT,,0.00,163.0,WeatherDisplay:10.37,2013-03-01 13:45:00,
2013-03-01 14:50:00,55.3,42.1,29.94,NE,39,1.0,8.0,61,0.00,SCT,,0.00,142.0,WeatherDisplay:10.37,2013-03-01 13:50:00,
2013-03-01 14:55:00,55.4,41.7,29.93,NE,42,2.0,9.0,60,0.00,BKN,,0.00,146.0,WeatherDisplay:10.37,2013-03-01 13:55:00,
2013-03-01 15:00:00,55.3,41.6,29.93,NE,38,7.0,9.0,60,0.00,BKN,,0.00,135.0,WeatherDisplay:10.37,2013-03-01 14:00:00,
2013-03-01 15:05:00,55.3,41.6,29.93,NE,38,5.0,7.0,60,0.00,BKN,,0.00,111.0,WeatherDisplay:10.37,2013-03-01 14:05:00,
2013-03-01 15:10:00,55.4,41.3,29.93,NE,46,7.0,10.0,59,0.00,BKN,,0.00,113.0,WeatherDisplay:10.37,2013-03-01 14:10:00,
2013-03-01 15:15:00,55.3,41.2,29.93,NE,44,0.0,9.0,59,0.00,BKN,,0.00,90.0,WeatherDisplay:10.37,2013-03-01 14:15:00,
2013-03-01 15:20:00,55.4,41.3,29.92,NE,43,5.0,8.0,59,0.00,BKN,,0.00,76.0,WeatherDisplay:10.37,2013-03-01 14:20:00,
2013-03-01 15:25:00,55.3,41.2,29.92,NE,51,2.0,8.0,59,0.00,BKN,,0.00,70.0,WeatherDisplay:10.37,2013-03-01 14:25:00,
2013-03-01 15:30:00,55.3,41.2,29.92,NE,44,5.0,7.0,59,0.00,BKN,,0.00,83.0,WeatherDisplay:10.37,2013-03-01 14:30:00,
2013-03-01 15:35:00,55.3,41.6,29.92,NE,42,3.0,7.0,60,0.00,BKN,,0.00,91.0,WeatherDisplay:10.37,2013-03-01 14:35:00,
2013-03-01 15:40:00,55.3,41.6,29.91,NE,45,7.0,8.0,60,0.00,BKN,,0.00,86.0,WeatherDisplay:10.37,2013-03-01 14:40:00,
2013-03-01 15:45:00,55.3,41.6,29.91,NE,45,5.0,9.0,60,0.00,SCT,,0.00,93.0,WeatherDisplay:10.37,2013-03-01 14:45:00,
2013-03-01 15:50:00,55.2,41.5,29.91,NE,46,6.0,8.0,60,0.00,SCT,,0.00,97.0,WeatherDisplay:10.37,2013-03-01 14:50:00,
2013-03-01 15:55:00,55.3,41.2,29.91,NE,46,1.0,7.0,59,0.00,SCT,,0.00,102.0,WeatherDisplay:10.37,2013-03-01 14:55:00,
2013-03-01 16:00:00,55.3,41.2,29.91,NE,50,0.0,3.0,59,0.00,FEW,,0.00,93.0,WeatherDisplay:10.37,2013-03-01 15:00:00,
2013-03-01 16:05:00,55.4,41.3,29.91,NE,51,0.0,4.0,59,0.00,FEW,,0.00,86.0,WeatherDisplay:10.37,2013-03-01 15:05:00,
2013-03-01 16:10:00,55.4,41.3,29.90,NE,51,0.0,3.0,59,0.00,FEW,,0.00,90.0,WeatherDisplay:10.37,2013-03-01 15:10:00,
2013-03-01 16:15:00,55.4,41.3,29.90,NE,51,2.0,5.0,59,0.00,CLR,,0.00,104.0,WeatherDisplay:10.37,2013-03-01 15:15:00,
2013-03-01 16:20:00,55.5,41.4,29.90,NE,51,2.0,5.0,59,0.00,CLR,,0.00,107.0,WeatherDisplay:10.37,2013-03-01 15:20:00,
2013-03-01 16:25:00,55.5,41.4,29.90,NE,50,0.0,1.0,59,0.00,CLR,,0.00,102.0,WeatherDisplay:10.37,2013-03-01 15:25:00,
2013-03-01 16:35:00,55.7,41.6,29.89,NE,50,2.0,5.0,59,0.00,CLR,,0.00,118.0,WeatherDisplay:10.37,2013-03-01 15:35:00,
2013-03-01 16:40:00,55.6,41.5,29.89,NE,49,3.0,5.0,59,0.00,CLR,,0.00,104.0,WeatherDisplay:10.37,2013-03-01 15:40:00,
2013-03-01 16:45:00,55.6,41.5,29.89,NE,49,3.0,5.0,59,0.00,CLR,,0.00,84.0,WeatherDisplay:10.37,2013-03-01 15:45:00,
2013-03-01 16:50:00,55.7,41.6,29.89,NE,49,0.0,3.0,59,0.00,CLR,,0.00,69.0,WeatherDisplay:10.37,2013-03-01 15:50:00,
2013-03-01 16:55:00,55.6,41.5,29.88,NE,49,0.0,1.0,59,0.00,CLR,,0.00,58.0,WeatherDisplay:10.37,2013-03-01 15:55:00,
2013-03-01 17:00:00,55.6,41.5,29.88,NE,49,1.0,5.0,59,0.00,OVC,,0.00,51.0,WeatherDisplay:10.37,2013-03-01 16:00:00,
2013-03-01 17:05:00,55.6,41.5,29.88,NE,49,0.0,2.0,59,0.00,OVC,,0.00,46.0,WeatherDisplay:10.37,2013-03-01 16:05:00,
2013-03-01 17:10:00,55.6,41.9,29.88,NE,49,0.0,0.0,60,0.00,OVC,,0.00,42.0,WeatherDisplay:10.37,2013-03-01 16:10:00,
2013-03-01 17:15:00,55.5,41.4,29.88,NE,49,0.0,0.0,59,0.00,OVC,,0.00,37.0,WeatherDisplay:10.37,2013-03-01 16:15:00,
2013-03-01 17:20:00,55.5,41.8,29.88,NE,49,0.0,1.0,60,0.00,OVC,,0.00,32.0,WeatherDisplay:10.37,2013-03-01 16:20:00,
2013-03-01 17:25:00,55.5,41.8,29.88,NE,49,1.0,4.0,60,0.00,OVC,,0.00,26.0,WeatherDisplay:10.37,2013-03-01 16:25:00,
2013-03-01 17:30:00,55.3,42.1,29.88,NE,49,2.0,4.0,61,0.00,OVC,,0.00,21.0,WeatherDisplay:10.37,2013-03-01 16:30:00,
2013-03-01 17:40:00,55.1,41.9,29.87,NE,48,3.0,7.0,61,0.00,OVC,,0.00,14.0,WeatherDisplay:10.37,2013-03-01 16:40:00,
2013-03-01 17:45:00,55.0,41.8,29.87,NE,47,5.0,5.0,61,0.00,OVC,,0.00,9.0,WeatherDisplay:10.37,2013-03-01 16:45:00,
2013-03-01 17:50:00,55.0,42.2,29.87,NE,45,3.0,6.0,62,0.00,OVC,,0.00,5.0,WeatherDisplay:10.37,2013-03-01 16:50:00,
2013-03-01 17:55:00,54.9,42.1,29.87,NE,45,2.0,6.0,62,0.00,OVC,,0.00,0.0,WeatherDisplay:10.37,2013-03-01 16:55:00,
2013-03-01 18:00:00,54.8,42.0,29.87,NE,40,3.0,6.0,62,0.00,OVC,,0.00,0.0,WeatherDisplay:10.37,2013-03-01 17:00:00,
2013-03-01 18:05:00,54.7,42.3,29.87,NNE,30,3.0,6.0,63,0.00,OVC,,0.00,0.0,WeatherDisplay:10.37,2013-03-01 17:05:00,
2013-03-01 18:10:00,54.5,42.2,29.87,NNE,27,2.0,5.0,63,0.00,OVC,,0.00,0.0,WeatherDisplay:10.37,2013-03-01 17:10:00,
2013-03-01 18:15:00,54.4,42.1,29.87,NNE,30,5.0,6.0,63,0.00,OVC,,0.00,0.0,WeatherDisplay:10.37,2013-03-01 17:15:00,
2013-03-01 18:20:00,54.3,42.0,29.87,NNE,33,3.0,6.0,63,0.00,OVC,,0.00,0.0,WeatherDisplay:10.37,2013-03-01 17:20:00,
2013-03-01 18:25:00,54.2,42.3,29.87,NE,34,1.0,5.0,64,0.00,OVC,,0.00,0.0,WeatherDisplay:10.37,2013-03-01 17:25:00,
2013-03-01 18:35:00,54.1,42.2,29.87,NNE,33,0.0,0.0,64,0.00,,,0.00,0.0,WeatherDisplay:10.37,2013-03-01 17:35:00,
2013-03-01 18:40:00,54.1,42.2,29.87,NNE,33,0.0,0.0,64,0.00,,,0.00,0.0,WeatherDisplay:10.37,2013-03-01 17:40:00,
2013-03-01 18:45:00,54.0,42.1,29.87,NNE,33,0.0,0.0,64,0.00,,,0.00,0.0,WeatherDisplay:10.37,2013-03-01 17:45:00,
2013-03-01 18:50:00,53.7,42.2,29.87,NNE,33,0.0,0.0,65,0.00,,,0.00,0.0,WeatherDisplay:10.37,2013-03-01 17:50:00,
2013-03-01 18:55:00,53.5,42.4,29.86,NNE,33,0.0,0.0,66,0.00,,,0.00,0.0,WeatherDisplay:10.37,2013-03-01 17:55:00,
2013-03-01 19:00:00,53.4,42.3,29.86,NNE,33,0.0,0.0,66,0.00,,,0.00,0.0,WeatherDisplay:10.37,2013-03-01 18:00:00,
2013-03-01 19:05:00,53.4,42.3,29.86,NNE,33,0.0,0.0,66,0.00,,,0.00,0.0,WeatherDisplay:10.37,2013-03-01 18:05:00,
2013-03-01 19:10:00,53.3,42.2,29.86,NNE,33,0.0,0.0,66,0.00,,,0.00,0.0,WeatherDisplay:10.37,2013-03-01 18:10:00,
2013-03-01 19:15:00,53.4,42.3,29.86,NNE,33,0.0,0.0,66,0.00,,,0.00,0.0,WeatherDisplay:10.37,2013-03-01 18:15:00,
2013-03-01 19:20:00,53.4,42.3,29.86,NNE,33,0.0,0.0,66,0.00,,,0.00,0.0,WeatherDisplay:10.37,2013-03-01 18:20:00,
2013-03-01 19:25:00,53.4,42.3,29.86,NNE,33,0.0,0.0,66,0.00,,,0.00,0.0,WeatherDisplay:10.37,2013-03-01 18:25:00,
2013-03-01 19:30:00,53.3,42.2,29.86,NNE,33,0.0,1.0,66,0.00,,,0.00,0.0,WeatherDisplay:10.37,2013-03-01 18:30:00,
2013-03-01 19:35:00,53.1,42.4,29.86,NNE,33,2.0,3.0,67,0.00,,,0.00,0.0,WeatherDisplay:10.37,2013-03-01 18:35:00,
2013-03-01 19:40:00,52.8,42.5,29.86,NNE,33,2.0,4.0,68,0.00,,,0.00,0.0,WeatherDisplay:10.37,2013-03-01 18:40:00,
2013-03-01 19:45:00,52.7,42.4,29.86,NNE,33,2.0,4.0,68,0.00,,,0.00,0.0,WeatherDisplay:10.37,2013-03-01 18:45:00,
2013-03-01 19:50:00,52.5,42.6,29.86,NNE,33,3.0,6.0,69,0.00,,,0.00,0.0,WeatherDisplay:10.37,2013-03-01 18:50:00,
2013-03-01 19:55:00,52.4,42.9,29.85,NE,36,5.0,7.0,70,0.00,,,0.00,0.0,WeatherDisplay:10.37,2013-03-01 18:55:00,
2013-03-01 20:00:00,52.3,42.8,29.85,NE,39,2.0,6.0,70,0.00,,,0.00,0.0,WeatherDisplay:10.37,2013-03-01 19:00:00,
2013-03-01 20:05:00,52.2,42.7,29.85,NE,40,0.0,4.0,70,0.00,,,0.00,0.0,WeatherDisplay:10.37,2013-03-01 19:05:00,
2013-03-01 20:15:00,51.8,42.7,29.85,NE,40,0.0,2.0,71,0.00,,,0.00,0.0,WeatherDisplay:10.37,2013-03-01 19:15:00,
2013-03-01 20:20:00,51.6,42.5,29.85,NE,40,2.0,4.0,71,0.00,,,0.00,0.0,WeatherDisplay:10.37,2013-03-01 19:20:00,
2013-03-01 20:25:00,51.8,42.7,29.84,NE,39,3.0,5.0,71,0.00,,,0.00,0.0,WeatherDisplay:10.37,2013-03-01 19:25:00,
2013-03-01 20:30:00,51.9,42.8,29.85,NNE,29,2.0,7.0,71,0.00,,,0.00,0.0,WeatherDisplay:10.37,2013-03-01 19:30:00,
2013-03-01 20:35:00,52.0,42.9,29.84,NNE,26,5.0,7.0,71,0.00,,,0.00,0.0,WeatherDisplay:10.37,2013-03-01 19:35:00,
2013-03-01 20:45:00,52.2,42.3,29.84,NNE,17,3.0,7.0,69,0.00,,,0.00,0.0,WeatherDisplay:10.37,2013-03-01 19:45:00,
2013-03-01 20:50:00,52.2,42.3,29.85,NNE,22,2.0,6.0,69,0.00,,,0.00,0.0,WeatherDisplay:10.37,2013-03-01 19:50:00,
2013-03-01 20:55:00,52.2,42.3,29.85,NNE,33,5.0,7.0,69,0.00,,,0.00,0.0,WeatherDisplay:10.37,2013-03-01 19:55:00,
2013-03-01 21:00:00,52.1,42.2,29.85,NE,37,5.0,7.0,69,0.00,,,0.00,0.0,WeatherDisplay:10.37,2013-03-01 20:00:00,
2013-03-01 21:05:00,52.1,42.2,29.85,NE,39,6.0,8.0,69,0.00,,,0.00,0.0,WeatherDisplay:10.37,2013-03-01 20:05:00,
2013-03-01 21:10:00,52.0,42.1,29.85,NE,48,5.0,8.0,69,0.00,,,0.00,0.0,WeatherDisplay:10.37,2013-03-01 20:10:00,
2013-03-01 21:15:00,52.0,42.5,29.85,NE,49,5.0,8.0,70,0.00,,,0.00,0.0,WeatherDisplay:10.37,2013-03-01 20:15:00,
2013-03-01 21:20:00,51.9,42.4,29.85,NE,47,5.0,6.0,70,0.00,,,0.00,0.0,WeatherDisplay:10.37,2013-03-01 20:20:00,
2013-03-01 21:25:00,51.9,42.4,29.85,NE,48,2.0,5.0,70,0.00,,,0.00,0.0,WeatherDisplay:10.37,2013-03-01 20:25:00,
2013-03-01 21:30:00,51.8,42.3,29.85,NE,49,3.0,5.0,70,0.00,,,0.00,0.0,WeatherDisplay:10.37,2013-03-01 20:30:00,
2013-03-01 21:35:00,51.7,42.2,29.85,NE,49,1.0,5.0,70,0.00,,,0.00,0.0,WeatherDisplay:10.37,2013-03-01 20:35:00,
2013-03-01 21:40:00,51.7,42.2,29.85,NE,49,0.0,3.0,70,0.00,,,0.00,0.0,WeatherDisplay:10.37,2013-03-01 20:40:00,
2013-03-01 21:45:00,51.5,42.0,29.84,NE,45,3.0,7.0,70,0.00,,,0.00,0.0,WeatherDisplay:10.37,2013-03-01 20:45:00,
2013-03-01 21:50:00,51.5,42.0,29.85,NE,41,3.0,7.0,70,0.00,,,0.00,0.0,WeatherDisplay:10.37,2013-03-01 20:50:00,
2013-03-01 21:55:00,51.5,42.0,29.85,NE,43,3.0,5.0,70,0.00,,,0.00,0.0,WeatherDisplay:10.37,2013-03-01 20:55:00,
2013-03-01 22:00:00,51.5,42.0,29.84,NE,46,3.0,5.0,70,0.00,,,0.00,0.0,WeatherDisplay:10.37,2013-03-01 21:00:00,
2013-03-01 22:05:00,51.4,41.9,29.84,NE,47,6.0,8.0,70,0.00,,,0.00,0.0,WeatherDisplay:10.37,2013-03-01 21:05:00,
2013-03-01 22:10:00,51.3,41.8,29.84,NE,48,5.0,9.0,70,0.00,,,0.00,0.0,WeatherDisplay:10.37,2013-03-01 21:10:00,
2013-03-01 22:15:00,51.3,41.8,29.84,NE,49,5.0,6.0,70,0.00,,,0.00,0.0,WeatherDisplay:10.37,2013-03-01 21:15:00,
2013-03-01 22:20:00,51.2,42.1,29.84,NE,49,6.0,9.0,71,0.00,,,0.00,0.0,WeatherDisplay:10.37,2013-03-01 21:20:00,
2013-03-01 22:25:00,51.2,42.1,29.84,NE,46,7.0,10.0,71,0.00,,,0.00,0.0,WeatherDisplay:10.37,2013-03-01 21:25:00,
2013-03-01 22:30:00,51.3,41.8,29.84,NE,48,6.0,10.0,70,0.00,,,0.00,0.0,WeatherDisplay:10.37,2013-03-01 21:30:00,
2013-03-01 22:35:00,51.3,41.8,29.83,NE,44,7.0,9.0,70,0.00,,,0.00,0.0,WeatherDisplay:10.37,2013-03-01 21:35:00,
2013-03-01 22:40:00,51.4,41.9,29.84,NE,44,6.0,10.0,70,0.00,,,0.00,0.0,WeatherDisplay:10.37,2013-03-01 21:40:00,
2013-03-01 22:45:00,51.4,41.9,29.84,NE,47,7.0,8.0,70,0.00,,,0.00,0.0,WeatherDisplay:10.37,2013-03-01 21:45:00,
2013-03-01 22:50:00,51.4,41.9,29.84,NE,44,7.0,9.0,70,0.00,,,0.00,0.0,WeatherDisplay:10.37,2013-03-01 21:50:00,
2013-03-01 23:00:00,51.4,41.9,29.84,NE,46,6.0,9.0,70,0.00,,,0.00,0.0,WeatherDisplay:10.37,2013-03-01 22:00:00,
2013-03-01 23:05:00,51.4,41.9,29.84,NE,45,2.0,7.0,70,0.00,,,0.00,0.0,WeatherDisplay:10.37,2013-03-01 22:05:00,
2013-03-01 23:10:00,51.3,41.8,29.84,NE,44,2.0,5.0,70,0.00,,,0.00,0.0,WeatherDisplay:10.37,2013-03-01 22:10:00,
2013-03-01 23:15:00,51.2,41.7,29.84,NE,44,0.0,4.0,70,0.00,,,0.00,0.0,WeatherDisplay:10.37,2013-03-01 22:15:00,
2013-03-01 23:25:00,51.1,42.0,29.84,NE,44,0.0,1.0,71,0.00,,,0.00,0.0,WeatherDisplay:10.37,2013-03-01 22:25:00,
2013-03-01 23:30:00,51.0,42.0,29.84,NE,44,3.0,5.0,71,0.00,,,0.00,0.0,WeatherDisplay:10.37,2013-03-01 22:30:00,
2013-03-01 23:35:00,51.0,41.9,29.83,NE,42,5.0,7.0,71,0.00,,,0.00,0.0,WeatherDisplay:10.37,2013-03-01 22:35:00,
2013-03-01 23:40:00,51.0,41.9,29.83,NE,38,5.0,7.0,71,0.00,,,0.00,0.0,WeatherDisplay:10.37,2013-03-01 22:40:00,
2013-03-01 23:45:00,51.0,41.9,29.83,NE,34,6.0,9.0,71,0.00,,,0.00,0.0,WeatherDisplay:10.37,2013-03-01 22:45:00,
2013-03-01 23:50:00,51.0,41.9,29.83,NNE,31,6.0,9.0,71,0.00,,,0.00,0.0,WeatherDisplay:10.37,2013-03-01 22:50:00,
2013-03-01 23:55:00,51.0,41.9,29.83,NNE,28,3.0,9.0,71,0.00,,,0.00,0.0,WeatherDisplay:10.37,2013-03-01 22:55:00,